When you browse on this site, cookies collect data to enhance your experience and personalize the content and advertising you see.
Visit our Privacy Policy to learn more. By continuing to use the site, you agree to this use of cookies and data.
  • In Romania
  • List of Countries
  • For 7 days
  • Water Temperature
  • Satellite Maps
  • Weather Map
  • Weather Widgets
  • user-avatar
    Login

    Hourly Weather Yubaykulevo

    Today, 24 July, Wednesday

    Time Temperature Precipitation Wind Pressure Humidity
    00:00 +14°C° 0 mm 2 mps 744 mmHg 95%
    01:00 +14°C° 0 mm 2 mps 744 mmHg 95%
    02:00 +14°C° 0 mm 2 mps 745 mmHg 96%
    03:00 +13°C° 0 mm 2 mps 745 mmHg 96%
    04:00 +13°C° 0 mm 2 mps 745 mmHg 96%
    05:00 +14°C° 0 mm 2 mps 745 mmHg 95%
    06:00 +15°C° 0 mm 2 mps 745 mmHg 93%
    07:00 +16°C° 0 mm 2 mps 746 mmHg 92%
    08:00 +18°C° 0 mm 2 mps 746 mmHg 87%
    09:00 +19°C° 0 mm 2 mps 746 mmHg 81%
    10:00 +21°C° 0 mm 2 mps 746 mmHg 76%
    11:00 +21°C° 0.6 mm 2 mps 746 mmHg 75%
    12:00 +23°C° 0.6 mm 2 mps 746 mmHg 73%
    13:00 +24°C° 0.6 mm 2 mps 746 mmHg 72%
    14:00 +24°C° 0.3 mm 2 mps 746 mmHg 70%
    15:00 +24°C° 0.3 mm 2 mps 746 mmHg 68%
    16:00 +25°C° 0.3 mm 2 mps 746 mmHg 67%
    17:00 +24°C° 0.1 mm 1 mps 746 mmHg 71%
    18:00 +23°C° 0.1 mm 1 mps 747 mmHg 75%
    19:00 +23°C° 0.1 mm 1 mps 747 mmHg 79%
    20:00 +21°C° 0 mm 1 mps 747 mmHg 81%
    21:00 +20°C° 0 mm 1 mps 747 mmHg 84%
    22:00 +18°C° 0 mm 1 mps 747 mmHg 87%
    23:00 +18°C° 0 mm 1 mps 747 mmHg 87%

    Tomorrow, 25 July, Thursday

    Time Temperature Precipitation Wind Pressure Humidity
    00:00 +16°C° 0 mm 1 mps 747 mmHg 87%
    01:00 +16°C° 0 mm 1 mps 748 mmHg 88%
    02:00 +15°C° 0 mm 1 mps 748 mmHg 88%
    03:00 +15°C° 0 mm 1 mps 748 mmHg 88%
    04:00 +15°C° 0 mm 1 mps 748 mmHg 87%
    05:00 +16°C° 0 mm 1 mps 748 mmHg 85%
    06:00 +18°C° 0 mm 1 mps 748 mmHg 82%
    07:00 +19°C° 0 mm 1 mps 748 mmHg 79%
    08:00 +21°C° 0 mm 1 mps 749 mmHg 75%
    09:00 +22°C° 0 mm 1 mps 749 mmHg 70%
    10:00 +24°C° 0 mm 2 mps 749 mmHg 66%
    11:00 +25°C° 0 mm 2 mps 749 mmHg 63%
    12:00 +26°C° 0 mm 2 mps 749 mmHg 59%
    13:00 +27°C° 0 mm 2 mps 749 mmHg 55%
    14:00 +27°C° 0 mm 2 mps 749 mmHg 55%
    15:00 +27°C° 0 mm 2 mps 749 mmHg 55%
    16:00 +27°C° 0 mm 2 mps 749 mmHg 55%
    17:00 +26°C° 0 mm 2 mps 748 mmHg 62%
    18:00 +25°C° 0 mm 2 mps 748 mmHg 68%
    19:00 +24°C° 0 mm 2 mps 748 mmHg 75%
    20:00 +21°C° 0 mm 2 mps 748 mmHg 78%
    21:00 +20°C° 0 mm 2 mps 748 mmHg 80%
    22:00 +18°C° 0 mm 2 mps 748 mmHg 83%
    23:00 +18°C° 0 mm 2 mps 749 mmHg 84%

    Day after tomorrow, 26 July, Friday

    Time Temperature Precipitation Wind Pressure Humidity
    00:00 +17°C° 0 mm 2 mps 749 mmHg 86%
    01:00 +17°C° 0 mm 2 mps 749 mmHg 87%
    02:00 +16°C° 0 mm 2 mps 749 mmHg 87%
    03:00 +16°C° 0 mm 2 mps 749 mmHg 88%
    04:00 +15°C° 0 mm 2 mps 749 mmHg 88%
    05:00 +17°C° 0 mm 2 mps 749 mmHg 85%
    06:00 +18°C° 0 mm 2 mps 749 mmHg 82%
    07:00 +20°C° 0 mm 1 mps 749 mmHg 78%
    08:00 +21°C° 0 mm 2 mps 749 mmHg 73%
    09:00 +23°C° 0 mm 2 mps 749 mmHg 67%
    10:00 +25°C° 0 mm 2 mps 749 mmHg 62%
    11:00 +25°C° 0 mm 2 mps 748 mmHg 60%
    12:00 +26°C° 0 mm 2 mps 748 mmHg 59%
    13:00 +26°C° 0 mm 3 mps 748 mmHg 57%
    14:00 +27°C° 0 mm 2 mps 747 mmHg 57%
    15:00 +27°C° 0 mm 2 mps 747 mmHg 57%
    16:00 +27°C° 0 mm 2 mps 747 mmHg 57%
    17:00 +26°C° 0 mm 2 mps 746 mmHg 64%
    18:00 +25°C° 0 mm 2 mps 746 mmHg 72%
    19:00 +24°C° 0 mm 2 mps 746 mmHg 79%
    20:00 +21°C° 0 mm 2 mps 746 mmHg 82%
    21:00 +20°C° 0 mm 2 mps 746 mmHg 85%
    22:00 +19°C° 0 mm 1 mps 746 mmHg 88%
    23:00 +19°C° 0 mm 1 mps 746 mmHg 87%

    27 July, Saturday

    Time Temperature Precipitation Wind Pressure Humidity
    00:00 +18°C° 0 mm 1 mps 745 mmHg 85%
    01:00 +16°C° 0 mm 1 mps 745 mmHg 83%
    02:00 +16°C° 0 mm 1 mps 745 mmHg 81%
    03:00 +15°C° 0 mm 1 mps 744 mmHg 78%
    04:00 +15°C° 0 mm 1 mps 744 mmHg 75%
    05:00 +16°C° 0 mm 1 mps 744 mmHg 75%
    06:00 +16°C° 0 mm 0 mps 744 mmHg 75%
    07:00 +17°C° 0 mm 0 mps 744 mmHg 75%
    08:00 +19°C° 0 mm 0 mps 744 mmHg 72%
    09:00 +20°C° 0 mm 0 mps 743 mmHg 69%
    10:00 +22°C° 0 mm 0 mps 743 mmHg 66%
    11:00 +22°C° 0 mm 0 mps 742 mmHg 64%
    12:00 +25°C° 0 mm 1 mps 742 mmHg 62%
    13:00 +26°C° 0 mm 1 mps 741 mmHg 60%
    14:00 +26°C° 0 mm 1 mps 741 mmHg 61%
    15:00 +26°C° 0 mm 1 mps 740 mmHg 61%
    16:00 +26°C° 0 mm 1 mps 740 mmHg 62%
    17:00 +25°C° 0.3 mm 1 mps 740 mmHg 67%
    18:00 +24°C° 0.3 mm 1 mps 739 mmHg 73%
    19:00 +23°C° 0.3 mm 1 mps 739 mmHg 79%
    20:00 +22°C° 0.1 mm 1 mps 738 mmHg 81%
    21:00 +21°C° 0.1 mm 1 mps 738 mmHg 83%
    22:00 +19°C° 0.1 mm 1 mps 738 mmHg 85%
    23:00 +19°C° 0 mm 1 mps 737 mmHg 86%

    28 July, Sunday

    Time Temperature Precipitation Wind Pressure Humidity
    00:00 +18°C° 0 mm 1 mps 737 mmHg 88%
    01:00 +18°C° 0 mm 1 mps 736 mmHg 89%
    02:00 +18°C° 0 mm 1 mps 736 mmHg 89%
    03:00 +16°C° 0 mm 2 mps 735 mmHg 90%
    04:00 +16°C° 0 mm 2 mps 735 mmHg 91%
    05:00 +17°C° 0 mm 2 mps 734 mmHg 90%
    06:00 +18°C° 0 mm 2 mps 734 mmHg 88%
    07:00 +19°C° 0 mm 2 mps 733 mmHg 87%
    08:00 +20°C° 0.7 mm 3 mps 733 mmHg 84%
    09:00 +21°C° 0.7 mm 3 mps 732 mmHg 82%
    10:00 +22°C° 0.7 mm 4 mps 732 mmHg 79%
    11:00 +21°C° 1.1 mm 5 mps 732 mmHg 83%
    12:00 +19°C° 1.1 mm 6 mps 732 mmHg 86%
    13:00 +17°C° 1.1 mm 6 mps 732 mmHg 90%
    14:00 +16°C° 0.3 mm 6 mps 732 mmHg 90%
    15:00 +15°C° 0.3 mm 5 mps 732 mmHg 90%
    16:00 +14°C° 0.3 mm 5 mps 732 mmHg 91%
    17:00 +14°C° 0 mm 5 mps 732 mmHg 89%
    18:00 +13°C° 0 mm 5 mps 732 mmHg 87%
    19:00 +13°C° 0 mm 5 mps 732 mmHg 86%
    20:00 +12°C° 0 mm 5 mps 732 mmHg 82%
    21:00 +12°C° 0 mm 4 mps 732 mmHg 79%
    22:00 +11°C° 0 mm 4 mps 732 mmHg 76%
    23:00 +10°C° 0 mm 4 mps 732 mmHg 77%

    29 July, Monday

    Time Temperature Precipitation Wind Pressure Humidity
    00:00 +8°C° 0 mm 4 mps 732 mmHg 78%
    01:00 +7°C° 0 mm 4 mps 732 mmHg 80%
    02:00 +7°C° 0 mm 3 mps 732 mmHg 84%
    03:00 +5°C° 0 mm 3 mps 732 mmHg 89%
    04:00 +4°C° 0 mm 3 mps 732 mmHg 93%
    05:00 +5°C° 0 mm 3 mps 732 mmHg 90%
    06:00 +5°C° 0 mm 3 mps 732 mmHg 86%
    07:00 +6°C° 0 mm 4 mps 732 mmHg 83%
    08:00 +7°C° 0.1 mm 4 mps 732 mmHg 79%
    09:00 +8°C° 0.1 mm 4 mps 732 mmHg 75%
    10:00 +10°C° 0.1 mm 4 mps 731 mmHg 72%
    11:00 +10°C° 0.2 mm 4 mps 732 mmHg 71%
    12:00 +10°C° 0.2 mm 4 mps 732 mmHg 71%
    13:00 +10°C° 0.2 mm 4 mps 732 mmHg 70%
    14:00 +10°C° 0.2 mm 4 mps 732 mmHg 72%
    15:00 +10°C° 0.2 mm 4 mps 732 mmHg 74%
    16:00 +10°C° 0.2 mm 4 mps 732 mmHg 76%
    17:00 +8°C° 0.2 mm 4 mps 732 mmHg 80%
    18:00 +9°C° 0.2 mm 3 mps 733 mmHg 83%
    19:00 +8°C° 0.2 mm 3 mps 733 mmHg 87%
    20:00 +7°C° 0.1 mm 3 mps 733 mmHg 90%
    21:00 +7°C° 0.1 mm 2 mps 733 mmHg 92%
    22:00 +6°C° 0.1 mm 2 mps 733 mmHg 95%
    23:00 +6°C° 0.1 mm 2 mps 733 mmHg 95%
    Show more